Theta_e
342 342 341 340 340 339 339 339 335 325 327 330 332 335 338 336 338 337 338 337 336 335 333 334 336 337 338 340 341 341 341 341 342 342 342 342 343 342
340 341 341 342 343 344 343 342 338 335 330 333 333 334 336 335 337 335 336 335 334 334 332 332 334 335 335 336 337 337 338 338 338 338 338 338 338 339
341 340 340 341 342 342 342 342 340 338 332 328 332 332 333 331 330 331 332 333 335 333 332 332 331 332 334 335 335 335 336 336 336 335 335 334 333 334
339 339 339 339 340 340 340 340 339 339 334 327 328 329 329 329 327 326 328 330 332 331 330 330 329 329 328 328 328 328 328 329 330 330 331 331 332 332
338 337 338 338 339 339 339 338 338 333 331 330 326 325 326 327 325 325 326 328 330 330 328 328 328 327 325 323 322 321 320 320 322 323 324 326 328 329
337 338 337 337 338 338 337 335 332 330 329 327 326 325 326 326 325 321 321 325 325 326 327 327 328 329 327 325 325 323 318 316 316 317 318 318 319 323
335 335 334 334 333 335 335 332 330 329 327 325 322 322 322 323 322 322 320 321 323 325 325 325 327 328 328 327 329 325 319 317 315 315 314 313 314 316
333 332 329 332 333 330 331 328 331 331 326 324 323 323 323 324 324 322 320 319 317 325 324 322 326 325 327 328 326 322 319 318 316 315 313 312 312 313
333 331 328 329 331 334 328 326 326 325 327 330 325 325 323 325 325 322 322 321 321 321 321 321 322 322 325 325 321 321 317 316 316 315 314 312 311 311
334 332 330 330 330 333 333 329 329 329 329 329 331 330 331 327 326 326 324 322 321 320 322 318 317 320 323 322 320 320 317 315 315 314 313 311 309 307
332 333 331 331 322 320 332 331 330 329 324 319 321 320 319 320 326 325 321 320 318 320 320 319 316 319 317 318 319 318 316 313 313 313 313 310 307 306
332 332 324 329 316 315 331 330 328 329 330 329 328 323 321 322 321 330 325 320 319 318 321 318 318 316 315 318 319 318 321 312 310 310 311 309 306 315
331 330 331 316 311 310 315 329 328 328 325 330 329 327 325 325 326 327 327 325 321 322 325 323 321 315 317 318 315 315 316 318 319 315 306 306 304 311
330 332 331 312 307 306 311 314 311 319 328 327 326 326 322 322 324 325 327 327 327 327 326 325 321 322 321 319 319 316 317 318 316 317 316 310 304 305
329 325 315 307 304 307 308 308 309 327 327 325 325 325 325 327 326 325 326 326 326 327 326 327 326 325 322 320 322 318 316 314 312 312 311 311 312 311
321 322 319 318 315 318 317 316 325 329 328 328 325 325 325 325 326 326 322 321 321 323 326 327 329 328 325 324 324 323 316 317 314 314 311 309 310 312
324 323 321 321 319 321 319 318 317 318 318 319 318 316 316 319 320 324 323 323 321 322 322 327 327 326 325 327 322 323 324 318 320 315 309 309 311 309
324 321 320 320 321 320 320 318 315 314 315 317 318 318 316 317 317 318 323 321 319 320 322 321 321 320 322 323 325 323 323 321 319 312 310 309 309 309
326 326 325 321 320 320 320 319 317 316 318 317 316 316 315 317 318 317 315 316 316 317 315 316 316 313 312 313 317 318 323 322 319 315 311 309 313 315
325 326 325 324 320 319 319 320 322 321 320 319 318 319 318 318 318 317 317 316 315 314 312 314 314 313 311 312 312 318 309 317 316 315 315 315 316 314
323 322 323 322 321 321 320 319 318 316 316 315 314 315 315 315 313 312 311 307 309 311 309 310 311 311 316 317 313 314 318 309 314 317 317 315 314 314
320 319 319 319 319 318 316 314 314 312 312 312 311 312 312 312 312 311 312 310 311 312 311 312 314 314 314 311 309 310 312 315 312 309 309 308 310 308
318 318 317 315 314 313 312 311 311 311 312 312 312 311 311 310 311 311 311 312 312 311 309 307 306 307 306 305 304 306 307 305 304 306 311 304 303 303
Wind_Speed
6 6 5 3 4 5 5 4 5 3 3 3 2 2 2 3 4 3 3 5 7 7 8 8 7 6 8 8 9 10 11 11 11 14 15 13 12 14
4 5 5 3 5 5 5 5 4 4 4 3 3 2 3 3 4 4 5 5 7 7 8 8 7 6 7 8 8 8 10 14 17 17 14 13 12 13
5 5 6 5 4 4 4 4 6 5 5 1 2 2 2 6 4 4 4 4 4 7 9 9 8 5 6 8 9 12 14 17 14 15 14 14 13 13
6 6 6 4 5 4 3 6 5 6 4 4 2 2 1 3 3 4 3 3 4 7 9 9 8 7 5 9 10 12 12 14 14 12 14 14 13 12
6 6 5 4 3 3 4 5 5 3 4 4 4 2 2 3 3 3 3 4 5 7 9 9 8 8 9 10 10 10 11 11 13 10 9 12 12 11
6 5 4 5 5 4 4 4 2 3 3 2 2 2 2 3 3 3 2 2 3 2 6 5 6 8 9 11 12 12 9 9 9 9 9 9 9 9
6 6 5 5 6 5 3 3 4 4 4 4 3 2 3 3 4 3 2 2 1 1 2 2 2 2 4 6 8 10 9 10 9 9 9 8 8 8
6 5 5 6 5 4 7 8 7 6 5 3 2 3 4 4 4 5 3 3 2 3 3 3 0 2 2 3 6 8 7 7 7 7 7 7 7 8
7 6 5 4 7 4 5 7 6 4 3 5 5 5 5 6 7 6 4 2 2 3 3 2 2 3 3 2 3 6 7 9 9 8 7 7 7 8
7 8 7 6 6 8 7 6 6 6 5 4 6 6 6 8 8 6 6 5 4 3 2 2 3 3 3 4 8 8 7 8 9 10 10 9 9 9
7 8 8 7 8 10 8 7 5 4 3 5 5 4 6 7 7 7 6 6 2 3 5 3 3 3 2 3 4 9 8 7 7 7 8 8 8 7
6 7 10 9 11 11 8 8 6 5 5 4 4 4 5 6 9 7 7 6 3 2 5 5 4 3 2 3 5 6 8 11 13 14 13 13 12 8
6 5 5 11 12 13 9 8 7 7 6 6 4 3 4 5 5 6 6 5 4 2 4 5 5 3 1 2 2 4 5 6 8 8 12 15 15 13
8 6 5 10 10 11 9 7 9 7 5 5 4 4 4 5 5 6 6 5 3 2 5 6 2 5 5 3 4 3 6 7 6 8 6 5 10 14
6 7 8 10 10 8 9 8 9 5 6 5 5 5 4 4 5 4 5 6 5 6 6 7 5 4 4 4 3 4 4 4 5 6 6 8 9 8
8 6 7 7 7 5 6 6 5 6 6 5 6 4 3 4 5 4 3 4 3 4 7 8 8 7 4 4 4 4 4 3 3 5 5 4 6 9
9 4 3 3 4 4 4 5 5 4 3 2 3 3 3 3 3 4 3 3 3 2 1 2 6 8 7 8 6 7 6 5 5 5 5 7 9 9
7 4 4 4 5 6 6 6 5 7 5 4 3 3 3 3 3 2 2 2 3 4 4 3 2 2 3 6 12 8 5 5 3 5 4 4 5 5
9 7 7 7 7 7 6 7 8 6 5 4 4 5 5 4 3 3 3 2 2 1 2 2 2 1 2 4 2 9 5 2 2 3 4 5 6 4
4 5 7 6 7 8 7 5 5 6 5 4 4 3 3 5 4 2 3 2 2 2 3 2 2 1 1 1 2 2 1 2 1 2 1 3 6 9
2 2 4 5 6 5 7 4 6 6 5 4 3 4 2 4 5 4 4 6 5 3 4 2 1 1 1 1 1 2 1 5 4 5 5 5 5 2
7 6 6 5 8 8 7 7 7 7 6 5 4 4 4 4 4 6 5 6 5 4 3 3 3 1 1 1 3 5 5 4 0 4 5 6 4 4
7 6 7 5 7 8 8 7 7 6 6 7 6 5 5 5 4 4 4 3 4 4 4 4 3 3 3 3 2 3 5 5 5 5 2 9 7 4
Wind_Direction
215 203 218 214 205 205 214 198 208 214 232 208 196 191 137 105 137 112 93 72 64 55 44 39 45 54 62 67 81 96 103 117 127 130 122 125 137 139
200 204 218 222 223 220 217 217 209 207 233 178 178 180 157 122 125 101 95 82 74 61 61 49 46 60 67 82 85 96 106 112 118 122 127 130 127 130
195 202 218 217 224 228 228 221 218 189 222 154 185 185 161 136 110 108 104 88 66 54 52 61 62 69 83 99 111 119 123 118 122 123 128 121 116 118
200 199 221 207 228 239 246 256 241 210 187 168 152 155 133 120 124 109 97 79 79 57 52 52 69 82 88 93 99 109 113 122 127 123 119 119 120 127
190 206 220 202 238 237 244 253 237 186 181 160 151 139 118 127 104 80 98 88 77 70 66 53 66 85 80 85 91 94 93 106 109 102 116 124 129 140
180 195 203 208 230 243 244 250 212 158 147 123 114 129 127 133 127 133 132 110 142 110 78 79 86 99 112 111 112 110 106 113 118 129 135 133 138 140
181 171 184 205 228 230 196 190 172 162 154 165 142 145 150 148 164 142 133 135 110 102 101 63 82 93 106 114 130 139 145 149 150 147 147 145 141 145
187 197 178 180 193 205 196 182 186 176 171 149 166 182 179 152 142 154 121 145 193 186 179 182 240 161 162 168 143 145 146 143 149 148 149 147 149 151
180 179 199 186 168 165 156 167 182 202 218 188 179 188 170 172 148 146 156 138 146 136 152 171 174 215 215 193 187 170 164 160 159 159 164 166 166 163
195 186 189 183 192 159 160 164 183 209 214 192 208 203 189 165 173 168 165 136 115 120 165 177 152 216 201 211 210 199 188 184 183 182 180 179 179 178
205 196 187 190 188 165 162 175 177 197 208 237 210 213 171 169 164 140 160 156 152 171 178 157 167 186 181 209 210 213 198 195 191 193 193 188 181 175
209 205 197 191 172 179 176 173 186 200 178 164 194 120 164 182 176 192 171 174 133 169 181 177 159 155 202 199 206 194 209 204 197 192 191 190 183 202
205 195 207 194 176 182 183 178 186 156 180 171 158 142 149 164 185 201 183 177 154 179 161 182 179 162 184 186 220 205 197 208 214 212 203 195 188 200
199 196 182 183 179 184 179 187 163 160 162 167 168 178 180 184 191 193 196 199 179 163 155 192 167 189 199 190 231 163 214 222 213 219 222 208 201 200
183 178 161 161 160 163 185 187 167 195 177 183 198 200 190 175 173 182 194 204 216 221 206 192 209 177 195 227 231 199 192 210 209 213 201 209 205 201
145 150 155 151 150 139 142 172 193 191 198 201 203 187 147 166 191 189 179 186 215 221 216 216 217 210 226 231 248 250 192 221 178 222 211 211 224 217
152 145 166 156 153 160 175 174 159 155 164 163 159 168 170 168 181 177 180 175 214 241 235 213 214 221 227 238 237 240 236 216 213 194 182 228 228 220
160 162 190 183 182 184 184 178 171 164 167 196 190 184 208 199 184 159 143 198 209 247 255 183 190 159 204 229 219 243 227 234 185 180 182 225 261 205
183 181 204 196 189 184 193 190 174 167 157 178 202 207 175 177 194 179 149 182 214 216 104 101 91 248 190 252 353 227 264 218 203 190 197 201 249 263
196 193 207 204 196 182 168 161 140 140 159 163 155 168 155 147 171 176 152 122 134 109 86 64 82 32 64 10 348 20 129 319 336 312 278 228 242 265
152 134 170 145 128 117 100 115 104 104 102 97 86 88 96 97 109 102 92 107 112 94 101 93 88 231 262 193 230 264 275 222 260 289 299 293 289 269
105 77 67 85 102 103 101 95 94 86 94 94 86 89 81 88 110 111 124 124 126 130 110 76 56 97 116 353 325 321 326 345 23 289 21 348 335 318
82 94 92 98 92 92 97 104 106 109 116 121 122 120 124 116 113 117 133 145 140 118 111 106 90 76 77 56 19 1 13 360 356 357 70 78 91 60